Regional Weather Roundup
Issued by NWS Sterling, VA

Home | Current Version | Previous Version | Graphics & Text | Print | Product List | Glossary On
Versions: 1 2 3 4 5 6 7 8 9 10 11 12 13 14 15 16 17 18 19 20 21 22 23 24 25 26 27 28 29 30 31 32 33 34 35 36 37 38 39 40 41 42 43 44 45 46 47 48 49 50
000
ASUS41 KLWX 031010
RWRLWX

REGIONAL WEATHER ROUNDUP
NATIONAL WEATHER SERVICE BALTIMORE MD/WASHINGTON DC
600 AM EDT THU SEP 03 2015

Note: "FAIR" indicates few or no clouds below 12,000 feet
with no significant weather and/or obstructions to visibility.
 TC=TEMPERATURE CELSIUS

 * =Non NWS site. Station does not report precipitation (e.g. rain,
    snow, etc.), thunder, or fog.

DCZ001-MDZ009-015-VAZ040>042-051-053>054-031100-
WASHINGTON METRO

CITY           SKY/WX    TMP DP  RH WIND       PRES   REMARKS
WASHINGTON NAT CLEAR     75  67  76 N6        29.90F
DULLES         CLEAR     66  65  96 CALM      29.92S
ANDREWS AFB    CLEAR     72  66  80 NW5       29.90S
FT BELVOIR     CLEAR     66  65  96 CALM      29.90S FOG
QUANTICO       CLEAR     69  65  86 NW3       29.92R
COLLEGE PARK*  CLEAR     70  68  94 CALM      29.89F
LEESBURG*      CLEAR     73  68  83 NW8       29.93S
MANASSAS*      CLEAR     66  64  94 CALM      29.92S
GAITHERSBURG*  CLEAR     66  64  94 CALM      29.96S

$$

MDZ006>007-011-014-031100-
BALTIMORE METRO

CITY           SKY/WX    TMP DP  RH WIND       PRES   REMARKS
BWI AIRPORT    CLEAR     69  66  90 W5        29.89S
MD SCIENCE CTR   N/A     76  66  71 MISG      29.90R
MARTIN STATE   CLEAR     72  70  94 CALM      29.90
ANNAPOLIS      CLEAR     73  68  84 W3        29.89S
FORT MEADE*    CLEAR     64  63  94 CALM      29.92S

$$

MDZ012-015-019>023-031100-
MARYLAND EASTERN SHORE

CITY           SKY/WX    TMP DP  RH WIND       PRES   REMARKS
OCEAN CITY     CLEAR     72  70  93 NW7       29.88S
SALISBURY      CLEAR     71  70  96 CALM      29.88F FOG
BAY BRIDGE AP*   N/A     73  68  83 NW5       29.89S
CAMBRIDGE*       N/A     70  66  88 CALM      29.88S
EASTON*        CLEAR     72  72 100 CALM      29.92  FOG

$$

MDZ017>025-031100-
SOUTHERN MARYLAND

CITY           SKY/WX    TMP DP  RH WIND       PRES   REMARKS
PATUXENT RIVER CLEAR     70  66  87 W7        29.88F
ST INIGOES     CLEAR     72  69  90 CALM      29.89S
LEONARDTOWN*   NOT AVBL

$$

MDZ003>005-031100-
NORTH CENTRAL MARYLAND

CITY           SKY/WX    TMP DP  RH WIND       PRES   REMARKS
FREDERICK*     CLEAR     66  66 100 CALM      29.94S FOG
HAGERSTOWN APT CLEAR     68  65  90 SE3       29.95S FOG
WESTMINSTER*   CLEAR     70  66  88 CALM      29.93S

$$

MDZ501>502-031100-
WESTERN MARYLAND

CITY           SKY/WX    TMP DP  RH WIND       PRES   REMARKS
OAKLAND*       CLEAR     61  61 100 SW3       30.08S FOG
CUMBERLAND*    CLOUDY    66  66 100 CALM      30.02R VSB<1/4

$$

VAZ025>031-031100-
SHENANDOAH VALLEY

CITY           SKY/WX    TMP DP  RH WIND       PRES   REMARKS
WINCHESTER*    CLEAR     64  64 100 CALM      29.96R FOG
FRONT ROYAL*   FAIR      64  63  94 S5        29.95S
LURAY*         FAIR      61  61 100 S3        29.98S FOG
NEW MARKET*    FAIR      61  61 100 CALM      29.98S
STAUNTON*      FOG       63  61  95 CALM      30.03R VSB 3/4
WAYNESBORO*    FAIR      63  61  95 CALM      30.01R

$$

WVZ021-048>050-054>055-031100-
EASTERN WEST VIRGINIA PANHANDLE

CITY           SKY/WX    TMP DP  RH WIND       PRES   REMARKS
MARTINSBURG    CLEAR     63  62  97 CALM      29.95S FOG
PETERSBURG*    FOG       63  63 100 CALM      30.01R VSB 1/4

$$

VAZ036>039-050-031100-
CENTRAL FOOTHILLS

CITY           SKY/WX    TMP DP  RH WIND       PRES   REMARKS
CHARLOTTESVILL CLEAR     67  64  90 CALM      29.94S
CULPEPER*      CLEAR     63  63  99 CALM      29.93S FOG
ORANGE*        CLEAR     64  64 100 CALM      29.94S
GORDONSVILLE*  FAIR      64  63  98 SW3       29.93S
WARRENTON*     FAIR      64  64 100 CALM      29.92S FOG

$$

VAZ055>057-031100-
NORTH AND CENTRAL PIEDMONT

CITY           SKY/WX    TMP DP  RH WIND       PRES   REMARKS
FREDERICKSBRG* CLEAR     69  68  98 CALM      29.91S
STAFFORD*      CLEAR     65  64  95 CALM      29.96R

$$

NCZ024-NYZ072-PAZ021-071-VAZ022-071-031100-
OTHER REGIONAL OBSERVATIONS

CITY           SKY/WX    TMP DP  RH WIND       PRES   REMARKS
NEW YORK CITY  CLEAR     75  64  68 CALM      29.89S
PHILADELPHIA   PTCLDY    77  64  64 N3        29.89R
PITTSBURGH     MOCLDY    70  65  84 CALM      29.98S
ROANOKE        CLEAR     66  63  90 CALM      30.02S
RICHMOND       CLEAR     68  66  93 SW5       29.92S
RALEIGH        FOG       70  68  94 CALM      29.95S VSB 1/4

$$

ANZ530>537-031100-
MARINE OBSERVATIONS

STATION/POSITION TIME  TEMP    WIND        PRES
                       AIR SEA DIR/SP/G
                 (UTC) (F)     (DEG/KT/KT) (MB)
THOMAS PT LIGHT  1000   75 80  320/  8/  9 1012.6
BALT KEY BRIDGE  0900   75     260/  7/  8 1012.0R
COVE POINT       0900   74     310/  7/ 10 1012.9F
LEWISETTA        0900   72 81  270/  5/  6 1012.0S
SOLOMONS ISLAND  0900      81                N/A
PINEY POINT      0905          290/  6/  8   N/A

$$




USA.gov is the U.S. government's official web portal to all federal, state and local government web resources and services.